EHI
61 57 50 40 34 34 34 27 21 23 26 26 23 22 20 17 16 17 14 9 7 9 13 15 16 18 21 22 25 29 31 34 43 47 41 32 25 23 25 23 21 20 20
60 58 52 43 37 37 34 25 19 17 19 20 19 18 18 16 15 15 13 10 8 8 10 14 16 17 18 19 22 25 24 28 39 47 44 34 26 24 26 26 25 25 27
53 54 50 43 38 35 30 22 16 14 14 16 16 16 17 17 16 15 13 11 10 8 8 11 12 13 14 14 17 20 18 19 29 41 44 37 30 29 29 28 29 31 32
41 42 40 36 32 28 22 17 15 14 14 16 17 19 18 17 16 16 15 13 11 9 7 7 8 10 12 13 14 15 15 15 20 30 37 36 33 29 25 24 25 28 29
30 29 26 24 22 19 15 14 17 21 22 23 25 25 22 19 18 18 18 15 12 9 7 6 7 10 12 12 11 11 13 15 17 22 27 30 28 23 18 17 18 21 22
19 18 15 13 13 14 13 15 24 34 37 35 34 35 34 30 26 23 20 16 12 9 7 6 6 8 9 9 8 9 11 14 16 18 21 24 25 21 16 14 15 17 18
12 11 9 8 9 11 13 18 29 40 44 42 43 46 46 42 34 28 23 16 11 9 9 7 6 6 6 6 6 7 9 10 11 13 17 20 22 21 16 15 16 16 16
8 8 7 7 7 9 11 17 26 33 37 39 44 49 50 45 38 33 26 20 13 10 9 9 7 5 4 4 4 6 7 7 8 9 12 14 16 18 17 16 18 16 13
4 4 5 5 4 5 7 12 19 24 27 29 33 38 42 43 40 37 31 25 21 15 11 10 7 5 3 3 3 4 5 6 7 8 8 9 11 15 15 16 17 15 12
1 1 1 2 1 2 3 6 11 15 17 17 17 19 26 35 38 35 31 30 28 24 17 12 8 5 4 3 3 3 4 5 6 6 6 6 8 11 13 14 15 13 11
0 0 0 0 0 0 1 2 4 7 9 9 8 9 14 22 25 26 26 29 31 28 23 16 10 5 4 4 3 3 3 4 4 4 4 4 5 8 10 12 13 11 11
0 0 0 0 0 0 1 2 3 4 4 4 5 6 9 13 14 16 19 23 26 27 23 18 10 5 4 3 3 3 3 3 3 3 3 3 4 5 7 10 11 10 9
0 0 0 0 0 0 1 1 2 2 2 2 3 5 6 9 11 12 14 15 16 18 18 15 9 4 3 3 3 3 3 3 3 3 3 3 3 4 5 7 8 7 6
0 0 0 0 0 0 0 0 1 1 1 1 2 3 4 7 10 10 10 9 8 9 10 9 7 4 3 3 3 3 3 3 3 3 3 3 3 3 4 5 5 4 4
0 0 0 0 0 0 0 0 0 0 0 1 2 3 4 6 7 7 7 7 6 5 5 5 5 5 3 3 2 2 3 3 3 3 3 3 3 3 2 3 3 3 4
0 0 0 0 0 0 0 0 0 0 0 0 1 2 4 5 4 4 6 7 6 5 4 4 4 4 3 1 1 1 1 2 2 2 2 2 2 1 1 1 1 2 3
0 0 0 0 0 0 0 0 0 0 0 0 0 1 2 3 3 3 4 5 5 4 3 3 3 3 2 1 0 0 0 1 1 1 1 1 1 0 0 0 0 0 1
0 0 0 0 0 0 0 0 1 1 1 1 1 2 3 3 3 3 3 3 4 3 3 3 3 3 1 0 0 0 0 0 0 0 0 0 0 0 0 1 1 0 0
0 0 0 0 0 0 1 1 2 2 2 2 3 3 3 3 3 3 3 3 3 3 3 3 3 2 1 0 0 0 0 0 0 0 0 0 0 0 1 2 2 1 0
0 0 0 0 0 1 2 3 3 3 3 3 3 3 3 3 3 3 3 3 3 3 3 3 3 2 0 0 0 0 0 0 0 0 0 0 0 0 1 2 2 1 0
0 0 1 1 1 2 3 3 3 3 3 3 3 3 3 3 3 3 3 3 3 3 3 3 3 2 1 0 0 0 0 0 0 0 0 0 0 0 1 2 2 1 0
1 1 2 2 3 3 3 3 3 3 3 3 3 3 3 3 3 3 3 3 3 3 3 3 2 2 2 0 0 0 0 0 0 0 0 0 0 0 0 1 1 0 0
2 3 3 3 3 3 3 3 3 3 3 3 3 3 3 3 3 3 3 3 3 3 3 2 2 2 1 0 0 0 0 0 0 0 0 0 0 0 0 0 0 0 0
3 3 3 3 3 3 3 3 3 3 3 3 3 2 3 3 3 3 3 3 3 3 3 2 1 1 1 0 0 0 0 0 0 0 0 0 0 0 0 0 0 0 0
3 3 3 3 3 3 3 3 3 3 2 2 1 1 1 2 2 3 3 3 3 2 1 1 0 0 0 0 0 0 0 0 0 0 0 0 0 0 0 0 0 0 0
3 3 3 3 3 3 3 3 3 2 1 1 0 0 0 1 1 2 3 3 3 1 0 0 0 0 0 0 0 0 0 0 0 0 0 0 0 0 0 0 0 0 0
Wind_Speed
6 6 6 5 6 5 5 4 4 4 3 2 3 3 4 4 4 5 5 7 8 8 8 9 8 9 9 9 11 10 10 9 8 8 9 10 12 13 11 11 11 12 12
7 7 6 6 5 5 4 4 4 3 3 2 2 2 3 4 4 5 4 6 7 8 8 8 9 8 8 10 10 9 8 9 7 7 6 7 9 10 12 11 11 12 10
7 6 6 5 5 4 3 2 2 2 2 2 3 2 3 4 4 4 4 5 6 7 7 9 9 8 9 8 9 10 11 10 8 8 8 7 8 6 6 9 9 8 8
5 5 5 4 4 3 2 1 0 1 2 3 3 4 4 5 5 4 4 5 6 7 7 8 8 8 9 8 10 9 9 10 10 8 9 10 8 7 6 6 7 8 8
3 4 4 3 2 2 1 1 1 2 2 4 4 5 6 5 5 5 5 6 6 6 7 7 7 8 8 9 10 10 10 9 10 9 8 10 9 11 9 8 6 6 6
3 4 5 5 4 4 3 3 2 3 3 5 5 6 7 7 8 7 7 7 5 5 7 7 7 8 8 9 9 10 12 10 11 10 9 9 8 9 10 10 9 7 5
6 6 6 7 7 7 6 5 5 5 5 6 6 7 8 8 9 9 7 8 7 6 5 7 7 8 8 9 10 10 11 11 12 11 10 10 10 9 9 9 9 8 5
8 9 10 9 9 9 9 8 8 7 7 7 7 7 8 8 7 7 9 9 8 8 7 8 8 9 10 10 10 10 11 10 11 12 12 10 10 9 9 9 8 7 6
10 10 10 10 10 10 10 10 9 9 9 9 9 8 8 9 9 9 10 9 8 8 8 9 9 10 10 10 10 9 10 10 11 11 11 10 9 9 9 9 8 8 7
9 10 9 9 9 9 9 9 9 9 10 10 9 8 9 9 9 10 10 10 10 9 9 10 10 10 10 9 9 9 9 10 10 8 9 10 8 7 8 8 8 8 7
9 9 9 9 9 10 9 9 9 10 10 11 11 11 10 10 10 10 10 10 10 10 10 10 10 10 10 9 9 9 10 10 10 9 9 10 9 6 6 6 6 6 6
9 9 10 10 10 10 10 10 10 10 10 10 11 12 11 11 11 11 11 10 11 10 10 9 10 10 9 9 9 9 9 9 9 9 8 8 7 7 5 5 5 5 5
10 10 10 10 10 10 10 10 10 11 11 11 11 12 12 11 12 12 12 11 11 11 10 10 10 9 9 9 8 8 8 8 8 7 7 6 6 5 4 4 4 3 4
10 10 10 10 10 10 10 11 11 11 12 12 13 13 13 13 13 13 12 11 11 11 10 10 10 9 9 8 7 7 6 6 6 5 5 4 4 4 4 3 3 4 6
11 11 11 11 11 11 12 12 13 13 13 14 14 14 14 14 13 13 12 12 11 11 10 10 9 9 8 7 6 5 5 5 4 3 2 1 1 1 2 3 5 6 7
13 13 14 14 14 14 14 14 14 14 14 15 15 15 15 15 14 13 13 12 11 11 10 9 9 9 6 2 1 5 4 3 3 1 0 2 3 6 7 7 7 6 7
16 17 17 16 16 16 16 16 16 15 15 15 16 15 15 15 14 14 13 12 11 11 11 10 9 9 5 5 4 3 4 3 2 2 2 2 4 5 8 10 11 11 10
19 18 18 18 17 17 17 16 16 16 16 16 16 16 16 16 15 14 14 13 11 10 10 10 9 8 6 7 6 4 4 2 2 3 3 5 6 6 7 9 11 11 10
20 18 18 19 18 18 18 18 18 17 17 17 16 16 16 16 16 16 14 13 11 11 10 9 8 8 6 9 8 6 5 4 4 4 5 6 8 7 7 10 12 12 11
19 19 19 19 18 17 17 18 19 18 18 17 17 16 16 16 16 16 15 12 11 11 10 9 8 8 8 10 10 8 5 5 5 6 6 7 9 8 6 9 11 12 10
21 20 20 19 18 18 18 19 19 19 18 17 17 17 16 16 16 15 13 12 11 11 10 8 7 7 8 11 11 9 5 6 7 7 7 7 9 8 5 6 9 10 10
21 21 19 19 18 18 19 19 19 19 18 18 17 17 17 16 14 14 13 12 11 10 9 7 6 5 7 9 11 10 6 3 7 7 8 9 10 9 6 7 10 9 7
21 20 20 20 19 18 18 20 19 18 18 18 18 17 17 15 15 14 14 12 10 8 7 5 4 4 5 7 11 11 7 4 4 7 13 14 13 11 9 11 9 8 7
20 20 21 21 20 19 19 19 19 18 18 18 17 16 15 15 14 11 11 10 9 7 6 5 4 4 5 7 9 9 9 8 8 10 14 13 9 7 10 10 7 5 6
20 20 20 20 21 20 18 18 18 17 17 17 15 15 14 13 12 11 9 10 9 6 6 5 4 5 7 9 12 12 11 11 11 13 11 11 11 10 10 9 7 7 8
21 21 21 21 21 20 19 18 17 16 16 14 14 11 11 10 10 10 9 9 10 7 9 9 7 6 8 12 13 11 12 13 16 13 11 11 10 10 10 10 9 8 8
Wind_Direction
122 127 132 134 138 143 157 172 183 178 206 221 246 251 259 270 277 280 291 289 288 289 284 285 288 280 276 274 270 264 260 255 252 254 255 253 249 248 247 244 249 246 242
125 120 119 121 125 129 140 158 173 175 204 201 250 274 293 288 293 299 298 295 296 294 289 292 288 286 283 276 273 267 265 262 244 243 254 259 251 239 242 238 236 240 240
124 118 113 105 104 104 112 116 139 180 207 222 237 248 251 257 264 286 288 303 303 299 300 297 293 293 285 282 281 274 264 263 255 239 242 251 255 261 243 238 238 237 240
117 111 107 94 87 82 86 94 186 228 232 236 249 265 276 287 301 294 298 299 292 294 295 294 293 290 288 286 278 276 271 263 261 249 238 245 263 262 259 239 232 228 233
90 76 61 49 36 27 12 337 304 279 266 263 259 261 271 283 287 290 286 284 284 283 288 292 293 290 286 288 286 282 273 265 261 260 253 248 247 245 253 254 241 232 229
61 51 32 22 11 359 343 317 295 285 279 270 268 268 278 282 286 284 286 280 282 280 283 289 291 288 289 287 283 281 273 269 267 263 257 251 247 241 242 248 246 241 237
45 38 27 20 13 4 355 343 332 318 304 287 280 276 275 274 270 275 278 282 285 283 287 290 288 289 289 285 283 278 275 271 266 261 258 252 248 251 249 250 251 249 242
43 38 31 24 17 10 4 359 351 338 326 311 300 289 281 274 275 274 283 281 283 288 295 286 284 284 284 284 282 279 275 270 267 263 260 259 253 249 245 243 245 244 236
41 35 32 26 21 17 12 7 1 351 342 330 316 299 291 286 286 283 272 273 275 279 280 281 282 282 282 282 283 278 278 275 270 265 260 256 256 248 245 241 234 234 233
34 28 24 19 14 11 9 5 2 354 344 335 324 314 303 292 286 281 281 280 278 276 277 278 281 282 281 281 281 281 278 277 273 270 266 259 255 248 243 239 235 231 231
20 15 10 6 1 359 358 355 352 347 343 337 328 319 311 302 294 285 282 279 277 274 272 274 276 278 279 279 278 279 281 276 276 274 267 261 255 250 245 241 235 229 218
1 360 357 353 351 348 344 343 338 335 332 329 324 319 312 305 299 292 287 282 277 273 270 271 271 273 275 276 276 277 279 276 275 274 270 265 255 244 242 237 231 223 203
343 344 343 339 335 333 331 330 326 325 322 320 317 316 314 309 303 299 294 287 281 276 271 267 266 268 270 270 270 274 279 279 278 276 270 260 251 242 228 221 212 196 175
327 327 326 322 321 318 317 317 317 318 316 315 314 315 315 311 306 303 298 292 285 280 274 268 263 263 264 262 263 267 276 283 286 284 279 264 238 223 203 192 177 158 148
315 314 312 311 311 312 312 311 312 312 313 311 310 311 312 311 306 303 301 296 289 283 278 272 264 261 258 255 258 260 264 273 276 278 283 270 108 89 139 157 156 149 145
308 308 309 311 312 311 309 309 307 308 308 306 305 307 308 308 306 303 299 296 292 288 282 270 263 256 253 154 230 269 256 255 246 227 80 112 106 88 83 91 100 117 140
316 316 315 313 312 309 309 307 306 305 302 300 300 301 301 302 303 302 299 295 292 289 280 271 260 252 229 162 187 246 261 235 195 150 145 121 102 108 106 101 96 84 78
314 313 311 309 307 307 307 305 303 300 299 298 298 299 298 298 300 299 295 293 289 286 280 268 258 247 208 172 186 201 222 181 137 135 135 126 120 108 113 115 103 94 83
310 309 307 306 307 306 305 303 300 297 296 297 300 301 300 298 297 295 295 295 291 287 282 270 253 239 203 173 180 202 190 155 129 118 116 124 118 100 108 114 108 101 92
308 307 306 303 302 303 303 300 298 297 296 298 299 299 297 294 294 293 293 292 289 283 282 273 251 231 212 175 177 203 196 154 139 122 113 103 110 108 110 123 119 115 113
305 305 303 301 302 302 300 297 295 295 296 296 296 295 292 290 286 286 286 285 285 284 279 272 254 230 208 172 177 197 208 162 154 143 136 118 112 110 97 114 119 122 126
305 305 303 300 299 298 296 294 293 294 295 293 292 291 289 287 287 288 286 281 281 281 275 264 248 224 192 176 177 187 210 198 158 147 136 126 129 123 118 113 119 138 151
305 304 301 300 298 297 295 293 294 295 293 291 289 289 288 285 283 283 281 278 272 271 272 261 239 218 187 166 165 173 179 186 159 122 113 126 134 132 123 126 146 169 151
304 303 302 300 299 298 295 293 293 292 290 288 288 287 285 283 282 282 281 277 275 271 268 261 236 208 192 171 166 168 163 150 137 124 120 129 142 135 123 146 168 162 126
304 303 301 299 299 298 296 294 293 292 289 287 285 285 284 282 281 279 277 278 277 270 258 256 239 209 198 185 175 172 171 168 152 145 148 153 154 154 155 157 150 140 140
305 303 301 300 299 298 296 295 294 290 286 284 283 282 284 285 284 285 283 265 260 249 227 230 235 226 197 168 169 172 153 142 146 158 158 160 162 161 158 155 152 150 145